When you browse on this site, cookies collect data to enhance your experience and personalize the content and advertising you see.
Visit our Privacy Policy to learn more. By continuing to use the site, you agree to this use of cookies and data.
  • In Lithuania
  • List of Countries
  • For 7 days
  • Water Temperature
  • Satellite Maps
  • Weather Map
  • Weather Widgets
  • user-avatar
    Login

    Hourly Weather Soloneshnoe

    Today, 27 March, Wednesday

    Time Temperature Precipitation Wind Pressure Humidity
    00:00 -3°C° 0 mm 2 mps 723 mmHg 80%
    01:00 -3°C° 0 mm 2 mps 723 mmHg 78%
    02:00 -3°C° 0 mm 2 mps 723 mmHg 76%
    03:00 -3°C° 0 mm 2 mps 723 mmHg 75%
    04:00 -3°C° 0 mm 2 mps 723 mmHg 73%
    05:00 -3°C° 0 mm 2 mps 722 mmHg 72%
    06:00 -4°C° 0 mm 2 mps 722 mmHg 70%
    07:00 -2°C° 0 mm 2 mps 723 mmHg 71%
    08:00 +1°C° 0 mm 2 mps 723 mmHg 71%
    09:00 +4°C° 0 mm 1 mps 723 mmHg 72%
    10:00 +5°C° 0 mm 1 mps 723 mmHg 75%
    11:00 +4°C° 0 mm 0 mps 723 mmHg 78%
    12:00 +5°C° 0 mm 0 mps 723 mmHg 81%
    13:00 +6°C° 0 mm 0 mps 723 mmHg 80%
    14:00 +6°C° 0 mm 0 mps 723 mmHg 79%
    15:00 +7°C° 0 mm 1 mps 723 mmHg 79%
    16:00 +5°C° 0 mm 0 mps 723 mmHg 78%
    17:00 +4°C° 0 mm 0 mps 723 mmHg 77%
    18:00 +3°C° 0 mm 0 mps 723 mmHg 76%
    19:00 +3°C° 0 mm 0 mps 723 mmHg 74%
    20:00 +3°C° 0 mm 1 mps 724 mmHg 72%
    21:00 +2°C° 0 mm 1 mps 724 mmHg 71%
    22:00 +2°C° 0 mm 1 mps 725 mmHg 71%
    23:00 +1°C° 0 mm 1 mps 725 mmHg 72%

    Tomorrow, 28 March, Thursday

    Time Temperature Precipitation Wind Pressure Humidity
    00:00 +1°C° 0 mm 1 mps 725 mmHg 72%
    01:00 -1°C° 0 mm 0 mps 725 mmHg 74%
    02:00 -1°C° 0 mm 0 mps 725 mmHg 76%
    03:00 -2°C° 0 mm 0 mps 726 mmHg 78%
    04:00 -2°C° 0 mm 0 mps 726 mmHg 80%
    05:00 -2°C° 0 mm 0 mps 726 mmHg 81%
    06:00 -2°C° 0 mm 0 mps 726 mmHg 83%
    07:00 0°C° 0 mm 1 mps 726 mmHg 82%
    08:00 +1°C° 0 mm 1 mps 726 mmHg 81%
    09:00 +2°C° 0 mm 1 mps 727 mmHg 80%
    10:00 +3°C° 0 mm 1 mps 727 mmHg 81%
    11:00 +4°C° 0 mm 1 mps 727 mmHg 81%
    12:00 +5°C° 0 mm 1 mps 727 mmHg 81%
    13:00 +4°C° 0 mm 2 mps 726 mmHg 82%
    14:00 +4°C° 0 mm 2 mps 726 mmHg 82%
    15:00 +4°C° 0 mm 2 mps 726 mmHg 82%
    16:00 +3°C° 0 mm 2 mps 725 mmHg 85%
    17:00 +2°C° 0 mm 2 mps 725 mmHg 88%
    18:00 +1°C° 0 mm 2 mps 725 mmHg 91%
    19:00 +2°C° 0 mm 1 mps 725 mmHg 92%
    20:00 +1°C° 0 mm 1 mps 725 mmHg 93%
    21:00 +1°C° 0 mm 1 mps 725 mmHg 93%
    22:00 +1°C° 0 mm 1 mps 725 mmHg 92%
    23:00 -1°C° 0 mm 2 mps 724 mmHg 91%

    Day after tomorrow, 29 March, Friday

    Time Temperature Precipitation Wind Pressure Humidity
    00:00 -1°C° 0 mm 2 mps 724 mmHg 89%
    01:00 -1°C° 0 mm 2 mps 724 mmHg 87%
    02:00 -1°C° 0 mm 2 mps 723 mmHg 84%
    03:00 -1°C° 0 mm 2 mps 723 mmHg 81%
    04:00 -1°C° 0 mm 2 mps 723 mmHg 77%
    05:00 +1°C° 0 mm 2 mps 722 mmHg 73%
    06:00 +1°C° 0 mm 2 mps 722 mmHg 69%
    07:00 +2°C° 0 mm 2 mps 722 mmHg 65%
    08:00 +4°C° 0 mm 2 mps 721 mmHg 61%
    09:00 +5°C° 0 mm 2 mps 721 mmHg 57%
    10:00 +8°C° 0 mm 1 mps 721 mmHg 57%
    11:00 +10°C° 0 mm 1 mps 720 mmHg 56%
    12:00 +10°C° 0 mm 0 mps 720 mmHg 55%
    13:00 +11°C° 0 mm 0 mps 719 mmHg 56%
    14:00 +11°C° 0 mm 0 mps 719 mmHg 56%
    15:00 +11°C° 0 mm 0 mps 718 mmHg 57%
    16:00 +10°C° 0 mm 0 mps 718 mmHg 58%
    17:00 +9°C° 0 mm 0 mps 718 mmHg 59%
    18:00 +7°C° 0 mm 0 mps 718 mmHg 60%
    19:00 +8°C° 0 mm 1 mps 718 mmHg 60%
    20:00 +7°C° 0 mm 2 mps 718 mmHg 60%
    21:00 +6°C° 0 mm 2 mps 718 mmHg 60%
    22:00 +6°C° 0 mm 2 mps 718 mmHg 61%
    23:00 +6°C° 0 mm 2 mps 717 mmHg 61%

    30 March, Saturday

    Time Temperature Precipitation Wind Pressure Humidity
    00:00 +5°C° 0 mm 3 mps 717 mmHg 62%
    01:00 +5°C° 0 mm 3 mps 717 mmHg 62%
    02:00 +5°C° 0 mm 3 mps 717 mmHg 63%
    03:00 +5°C° 0 mm 3 mps 717 mmHg 64%
    04:00 +5°C° 0 mm 3 mps 717 mmHg 65%
    05:00 +5°C° 0 mm 3 mps 717 mmHg 65%
    06:00 +5°C° 0 mm 3 mps 717 mmHg 65%
    07:00 +7°C° 0 mm 2 mps 718 mmHg 65%
    08:00 +7°C° 0 mm 2 mps 718 mmHg 65%
    09:00 +8°C° 0 mm 2 mps 718 mmHg 65%
    10:00 +8°C° 0 mm 2 mps 718 mmHg 64%
    11:00 +9°C° 0 mm 2 mps 718 mmHg 63%
    12:00 +10°C° 0 mm 3 mps 719 mmHg 63%
    13:00 +9°C° 0 mm 3 mps 719 mmHg 66%
    14:00 +8°C° 0 mm 4 mps 719 mmHg 70%
    15:00 +8°C° 0 mm 4 mps 719 mmHg 73%
    16:00 +8°C° 0 mm 3 mps 720 mmHg 79%
    17:00 +7°C° 0 mm 3 mps 720 mmHg 84%
    18:00 +5°C° 0 mm 2 mps 721 mmHg 90%
    19:00 +5°C° 0.1 mm 2 mps 721 mmHg 91%
    20:00 +4°C° 0.1 mm 2 mps 722 mmHg 93%
    21:00 +4°C° 0.1 mm 1 mps 723 mmHg 94%
    22:00 +4°C° 0 mm 1 mps 723 mmHg 94%
    23:00 +4°C° 0 mm 1 mps 723 mmHg 94%

    31 March, Sunday

    Time Temperature Precipitation Wind Pressure Humidity
    00:00 +4°C° 0 mm 1 mps 724 mmHg 94%
    01:00 +3°C° 0 mm 1 mps 724 mmHg 94%
    02:00 +3°C° 0 mm 1 mps 724 mmHg 94%
    03:00 +2°C° 0 mm 0 mps 724 mmHg 94%
    04:00 +2°C° 0 mm 0 mps 724 mmHg 94%
    05:00 +2°C° 0 mm 0 mps 724 mmHg 94%
    06:00 +2°C° 0 mm 0 mps 724 mmHg 93%
    07:00 +3°C° 0 mm 0 mps 724 mmHg 89%
    08:00 +4°C° 0 mm 0 mps 724 mmHg 84%
    09:00 +6°C° 0 mm 1 mps 725 mmHg 79%
    10:00 +8°C° 0 mm 1 mps 724 mmHg 74%
    11:00 +9°C° 0 mm 1 mps 724 mmHg 69%
    12:00 +11°C° 0 mm 1 mps 723 mmHg 63%
    13:00 +11°C° 0 mm 1 mps 723 mmHg 63%
    14:00 +10°C° 0 mm 2 mps 722 mmHg 63%
    15:00 +12°C° 0 mm 2 mps 722 mmHg 62%
    16:00 +10°C° 0 mm 2 mps 722 mmHg 68%
    17:00 +9°C° 0 mm 2 mps 721 mmHg 73%
    18:00 +9°C° 0 mm 1 mps 721 mmHg 79%
    19:00 +8°C° 0 mm 1 mps 721 mmHg 82%
    20:00 +7°C° 0 mm 1 mps 720 mmHg 84%
    21:00 +6°C° 0 mm 1 mps 720 mmHg 87%
    22:00 +6°C° 0 mm 1 mps 720 mmHg 84%
    23:00 +6°C° 0 mm 1 mps 719 mmHg 81%

    1 April, Monday

    Time Temperature Precipitation Wind Pressure Humidity
    00:00 +5°C° 0 mm 2 mps 719 mmHg 78%
    01:00 +5°C° 0 mm 2 mps 719 mmHg 76%
    02:00 +5°C° 0 mm 2 mps 718 mmHg 74%
    03:00 +5°C° 0 mm 2 mps 718 mmHg 72%
    04:00 +5°C° 0 mm 2 mps 718 mmHg 70%
    05:00 +5°C° 0 mm 2 mps 718 mmHg 68%
    06:00 +5°C° 0 mm 2 mps 717 mmHg 66%
    07:00 +7°C° 0 mm 2 mps 717 mmHg 61%
    08:00 +9°C° 0 mm 2 mps 717 mmHg 57%
    09:00 +12°C° 0 mm 2 mps 717 mmHg 52%
    10:00 +12°C° 0 mm 3 mps 717 mmHg 46%
    11:00 +14°C° 0 mm 4 mps 716 mmHg 40%
    12:00 +17°C° 0 mm 4 mps 716 mmHg 33%
    13:00 +17°C° 0 mm 4 mps 716 mmHg 34%
    14:00 +17°C° 0 mm 4 mps 715 mmHg 35%
    15:00 +18°C° 0 mm 4 mps 715 mmHg 36%
    16:00 +15°C° 0.2 mm 4 mps 715 mmHg 46%
    17:00 +13°C° 0.2 mm 4 mps 715 mmHg 56%
    18:00 +11°C° 0.2 mm 4 mps 715 mmHg 66%
    19:00 +8°C° 0.8 mm 5 mps 715 mmHg 65%
    20:00 +6°C° 0.8 mm 7 mps 716 mmHg 64%
    21:00 +3°C° 0.8 mm 9 mps 717 mmHg 63%
    22:00 +2°C° 0 mm 8 mps 717 mmHg 62%
    23:00 +2°C° 0 mm 7 mps 718 mmHg 61%
    Show more